Location: St Paul
(33.9360°N, 83.4200°W)
Time: 08:56:08
(UTC-04:00)

H-2A R/B - Pass Details

Date: 06 October 2017
Orbit: 505 x 545 km, 97.3° (Epoch: 15 October)

Event Time Altitude Azimuth Distance (km) Brightness Sun altitude
Exits shadow 21:05:58 13° 198° (SSW) 1,558 5.2 -24.6°
Maximum altitude 21:08:57 35° 262° (W) 849 4.2 -25.2°
Drops below altitude 10° 21:12:29 10° 330° (NNW) 1,770 5.9 -26.0°
Sets 21:14:44 0° 339° (NNW) 2,671 6.8 -26.4°
